Skip Page Navigation
NASA JPL Caltech
NASA Logo - Jet Propulsion Laboratory + View the NASA Portal
+ Center for Near-Earth Object Studies
JPL Home Earth Solar System Stars & Galaxies Technology
JPL Solar System Dynamics
BODIES ORBITS EPHEMERIDES TOOLS PHYSICAL DATA DISCOVERY FAQ SITE MAP
IMPORTANT: The SSD Announcement email list is now available. Major changes are coming in the near future, including possible hostname and/or URL changes. To be notified of such changes, subscribe to this email list.

Please visit this page for more details.


JPL Small-Body Database Browser
Search: [ help ]  
500170 (2012 FF25)
Classification: Main-belt Asteroid          SPK-ID: 2500170
Ephemeris | Orbit Diagram | Orbital Elements | Mission Design | Physical Parameters | Discovery Circumstances ]

[ hide orbit diagram ]

For accurate long-term ephemerides, please instead use our Horizons system.This orbit viewer was implemented using two-body methods, and hence should not be used for determining accurate long-term trajectories (over several years or decades) or planetary encounter circumstances.


[ revert to old Java-based viewer ]

Orbital Elements at Epoch 2458600.5 (2019-Apr-27.0) TDB
Reference: JPL 13 (heliocentric ecliptic J2000)
 Element Value Uncertainty (1-sigma)   Units 
e .2510372337206667 8.832e-08  
a 2.600564204189433 5.8932e-08 au
q 1.947725760256731 2.4584e-07 au
i 30.04716318482285 2.8108e-05 deg
node 356.7640322654319 1.3328e-05 deg
peri 282.8220238909664 5.2889e-05 deg
M 175.6101955414192 4.2815e-05 deg
tp 2457853.282519793390
(2017-Apr-09.78251979)
0.00019193 TDB
period 1531.792001284651
4.19
5.2069e-05
1.426e-07
d
yr
n .23501885353761 7.9888e-09 deg/d
Q 3.253402648122135 7.3727e-08 au
  Orbit Determination Parameters
   # obs. used (total)      58  
   data-arc span      2036 days (5.57 yr)  
   first obs. used      2012-02-26  
   last obs. used      2017-09-23  
   planetary ephem.      DE431  
   SB-pert. ephem.      SB431-N16  
   condition code      0  
   norm. resid. RMS      .69847  
   source      ORB  
   producer      Otto Matic  
   solution date      2017-Oct-09 21:43:44  

Additional Information
 Earth MOID = 1.11939 au 
 Jupiter MOID = 2.52737 au 
 T_jup = 3.186 
[ show covariance matrix ]

Ephemeris | Orbit Diagram | Orbital Elements | Mission Design | Physical Parameters | Discovery Circumstances ]

Physical Parameter Table
Parameter Symbol Value Units Sigma Reference Notes
absolute magnitude H 17.4   n/a MPO369156  

500170 (2012 FF25)          Discovered 2012-Feb-26 by Pan-STARRS 1 at Haleakala
Reference: Last Updated: 2017-10-09

Alternate Designations
 2012 FF25 = 2013 SF16 
Ephemeris | Orbit Diagram | Orbital Elements | Mission Design | Physical Parameters | Discovery Circumstances ]
ABOUT SSD CREDITS/AWARDS PRIVACY/COPYRIGHT GLOSSARY LINKS
FirstGov 2019-Oct-19 16:14 UT
(server date/time)  
NASA Home Page
Site Manager:   Ryan S. Park
Webmaster  Alan B. Chamberlin